| time (UTC) | temp C | wind direction | speed KPH | gust KPH | rain 1hr cm | rain 24hr cm | rain mn cm | humidity % | barometer mb |
| 20260507021054 | 7 | 0 | 0.0 | 0.0 | 0.00 | 1.96 | 1.47 | 89 | 1011.6 |
| 20260507020557 | 7 | 0 | 0.0 | 0.0 | 0.00 | 1.96 | 1.47 | 89 | 1011.6 |
| 20260507015557 | 7 | 0 | 0.0 | 1.6 | 0.00 | 2.34 | 1.47 | 89 | 1011.5 |
| 20260507015055 | 7 | 0 | 0.0 | 1.6 | 0.00 | 2.34 | 1.47 | 89 | 1011.7 |
| 20260507014600 | 7 | 277 | 0.0 | 1.6 | 0.00 | 2.34 | 1.47 | 89 | 1011.8 |
| 20260507014055 | 7 | 0 | 0.0 | 0.0 | 0.00 | 2.34 | 1.47 | 89 | 1011.7 |
| 20260507013554 | 7 | 0 | 0.0 | 0.0 | 0.00 | 2.34 | 1.47 | 89 | 1011.6 |
| 20260507013057 | 7 | 0 | 0.0 | 0.0 | 0.00 | 2.34 | 1.47 | 89 | 1011.5 |
| 20260507012559 | 7 | 0 | 0.0 | 0.0 | 0.00 | 2.34 | 1.47 | 90 | 1011.7 |
| 20260507012054 | 7 | 0 | 0.0 | 0.0 | 0.00 | 2.34 | 1.47 | 90 | 1011.6 |
| 20260507011559 | 6 | 0 | 0.0 | 0.0 | 0.00 | 2.34 | 1.47 | 89 | 1011.4 |
| 20260507011054 | 6 | 0 | 0.0 | 0.0 | 0.00 | 2.34 | 1.47 | 89 | 1011.3 |
| 20260507010554 | 6 | 0 | 0.0 | 0.0 | 0.00 | 2.34 | 1.47 | 89 | 1011.2 |
| 20260507010053 | 7 | 0 | 0.0 | 0.0 | 0.00 | 2.34 | 1.47 | 88 | 1011.2 |
| 20260507005554 | 7 | 0 | 0.0 | 0.0 | 0.00 | 2.59 | 1.47 | 88 | 1011.1 |
| 20260507005054 | 7 | 0 | 0.0 | 0.0 | 0.00 | 2.59 | 1.47 | 88 | 1010.8 |
| 20260507004554 | 7 | 0 | 0.0 | 0.0 | 0.00 | 2.59 | 1.47 | 88 | 1011.1 |
| 20260507004054 | 7 | 0 | 0.0 | 0.0 | 0.00 | 2.59 | 1.47 | 87 | 1011.1 |
| 20260507003555 | 7 | 0 | 0.0 | 0.0 | 0.00 | 2.59 | 1.47 | 87 | 1010.9 |
| 20260507003055 | 7 | 0 | 0.0 | 0.0 | 0.00 | 2.59 | 1.47 | 87 | 1010.8 |
| 20260507002555 | 7 | 0 | 0.0 | 0.0 | 0.00 | 2.59 | 1.47 | 87 | 1010.9 |
| 20260507002057 | 7 | 0 | 0.0 | 0.0 | 0.00 | 2.59 | 1.47 | 86 | 1010.8 |
| 20260507001603 | 7 | 0 | 0.0 | 0.0 | 0.00 | 2.59 | 1.47 | 86 | 1010.8 |
| 20260507001056 | 7 | 0 | 0.0 | 0.0 | 0.00 | 2.59 | 1.47 | 86 | 1010.9 |
| 20260507000557 | 7 | 0 | 0.0 | 1.6 | 0.00 | 2.59 | 1.47 | 86 | 1010.8 |
| 20260507000058 | 7 | 0 | 0.0 | 1.6 | 0.00 | 2.59 | 1.47 | 86 | 1010.7 |
| 20260506235557 | 7 | 272 | 0.0 | 3.2 | 0.00 | 2.62 | 1.47 | 86 | 1010.7 |
| 20260506235054 | 7 | 0 | 0.0 | 3.2 | 0.00 | 2.62 | 1.47 | 86 | 1010.6 |
| 20260506234624 | 7 | 257 | 0.0 | 3.2 | 0.00 | 2.62 | 1.47 | 85 | 1010.6 |
| 20260506234054 | 7 | 281 | 0.0 | 3.2 | 0.00 | 2.62 | 1.47 | 85 | 1010.6 |
| 20260506233554 | 7 | 0 | 0.0 | 3.2 | 0.00 | 2.62 | 1.47 | 85 | 1010.4 |
| 20260506233055 | 7 | 0 | 1.6 | 4.8 | 0.00 | 2.62 | 1.47 | 85 | 1010.3 |
| 20260506232559 | 7 | 288 | 0.0 | 6.4 | 0.00 | 2.62 | 1.47 | 85 | 1010.4 |
| 20260506232056 | 7 | 305 | 3.2 | 6.4 | 0.00 | 2.62 | 1.47 | 84 | 1010.4 |
| 20260506231556 | 7 | 280 | 0.0 | 3.2 | 0.00 | 2.62 | 1.47 | 85 | 1010.1 |
| 20260506231059 | 7 | 0 | 0.0 | 6.4 | 0.00 | 2.62 | 1.47 | 85 | 1009.9 |
| 20260506230600 | 7 | 281 | 1.6 | 6.4 | 0.00 | 2.62 | 1.47 | 85 | 1010.1 |
| 20260506230059 | 7 | 289 | 3.2 | 6.4 | 0.00 | 2.62 | 1.47 | 85 | 1010.2 |
| 20260506225600 | 7 | 290 | 0.0 | 3.2 | 0.00 | 2.62 | 1.47 | 85 | 1010.1 |
| 20260506225055 | 7 | 0 | 0.0 | 0.0 | 0.00 | 2.62 | 1.47 | 85 | 1009.7 |
| 20260506224556 | 7 | 0 | 0.0 | 0.0 | 0.00 | 2.62 | 1.47 | 84 | 1009.8 |
| 20260506224054 | 7 | 0 | 0.0 | 0.0 | 0.00 | 2.62 | 1.47 | 84 | 1009.8 |
| 20260506223600 | 7 | 0 | 0.0 | 3.2 | 0.00 | 2.62 | 1.47 | 85 | 1009.9 |
| 20260506223101 | 7 | 0 | 0.0 | 3.2 | 0.00 | 2.62 | 1.47 | 84 | 1009.9 |
| 20260506222557 | 7 | 294 | 0.0 | 3.2 | 0.00 | 2.62 | 1.47 | 84 | 1010.1 |
| 20260506222057 | 7 | 0 | 0.0 | 1.6 | 0.00 | 2.62 | 1.47 | 84 | 1010.2 |
| 20260506221556 | 7 | 0 | 0.0 | 3.2 | 0.00 | 2.62 | 1.47 | 83 | 1010.2 |
| 20260506221056 | 7 | 0 | 0.0 | 3.2 | 0.00 | 2.62 | 1.47 | 83 | 1010.2 |
| 20260506220556 | 7 | 304 | 0.0 | 3.2 | 0.00 | 2.62 | 1.47 | 83 | 1010.2 |
| 20260506220055 | 7 | 0 | 0.0 | 6.4 | 0.00 | 2.62 | 1.47 | 84 | 1010.0 |
| 20260506215557 | 7 | 299 | 1.6 | 8.0 | 0.00 | 2.62 | 1.47 | 84 | 1010.1 |
| 20260506215101 | 7 | 294 | 1.6 | 8.0 | 0.00 | 2.62 | 1.47 | 83 | 1010.1 |
| 20260506214557 | 7 | 289 | 3.2 | 8.0 | 0.00 | 2.62 | 1.47 | 83 | 1010.1 |
| 20260506214057 | 7 | 293 | 1.6 | 8.0 | 0.00 | 2.62 | 1.47 | 84 | 1010.1 |
| 20260506213557 | 7 | 0 | 1.6 | 8.0 | 0.00 | 2.62 | 1.47 | 85 | 1010.0 |
| 20260506213058 | 7 | 307 | 1.6 | 4.8 | 0.00 | 2.62 | 1.47 | 84 | 1010.0 |
| 20260506212557 | 7 | 349 | 1.6 | 9.7 | 0.00 | 2.62 | 1.47 | 84 | 1009.9 |
| 20260506212055 | 7 | 296 | 0.0 | 9.7 | 0.00 | 2.62 | 1.47 | 85 | 1009.8 |
| 20260506211554 | 7 | 299 | 1.6 | 9.7 | 0.00 | 2.62 | 1.47 | 84 | 1009.8 |
| 20260506211057 | 7 | 329 | 3.2 | 9.7 | 0.00 | 2.62 | 1.47 | 86 | 1009.8 |
| 20260506210554 | 7 | 276 | 6.4 | 9.7 | 0.00 | 2.62 | 1.47 | 85 | 1009.8 |
| 20260506210057 | 7 | 285 | 1.6 | 8.0 | 0.00 | 2.62 | 1.47 | 86 | 1009.9 |
| 20260506205559 | 7 | 304 | 1.6 | 11.3 | 0.00 | 2.62 | 1.47 | 86 | 1009.9 |
| 20260506205056 | 7 | 311 | 3.2 | 11.3 | 0.00 | 2.62 | 1.47 | 86 | 1009.9 |
| 20260506204600 | 7 | 323 | 1.6 | 6.4 | 0.00 | 2.62 | 1.47 | 87 | 1009.7 |
| 20260506204056 | 7 | 0 | 1.6 | 6.4 | 0.00 | 2.62 | 1.47 | 87 | 1009.6 |
| 20260506203556 | 7 | 276 | 1.6 | 4.8 | 0.00 | 2.62 | 1.47 | 88 | 1009.6 |
| 20260506203056 | 7 | 318 | 0.0 | 4.8 | 0.00 | 2.62 | 1.47 | 88 | 1009.4 |
| 20260506202600 | 7 | 347 | 1.6 | 4.8 | 0.00 | 2.62 | 1.47 | 88 | 1009.5 |
| 20260506202059 | 7 | 307 | 3.2 | 6.4 | 0.00 | 2.62 | 1.47 | 87 | 1009.3 |
| 20260506201558 | 7 | 8 | 0.0 | 6.4 | 0.00 | 2.62 | 1.47 | 89 | 1009.3 |
| 20260506201057 | 7 | 344 | 1.6 | 3.2 | 0.00 | 2.62 | 1.47 | 89 | 1009.2 |
| 20260506200601 | 7 | 331 | 0.0 | 3.2 | 0.00 | 2.62 | 1.47 | 90 | 1009.3 |
| 20260506200109 | 7 | 349 | 1.6 | 9.7 | 0.00 | 2.62 | 1.47 | 90 | 1009.3 |
| 20260506195600 | 7 | 0 | 3.2 | 9.7 | 0.00 | 2.62 | 1.47 | 89 | 1009.3 |
| 20260506195057 | 7 | 318 | 0.0 | 6.4 | 0.03 | 2.62 | 1.47 | 91 | 1009.4 |
| 20260506194623 | 7 | 0 | 3.2 | 6.4 | 0.03 | 2.62 | 1.47 | 90 | 1009.4 |
| 20260506194056 | 7 | 340 | 1.6 | 6.4 | 0.03 | 2.62 | 1.47 | 91 | 1009.5 |
| 20260506193600 | 7 | 335 | 1.6 | 6.4 | 0.03 | 2.62 | 1.47 | 91 | 1009.5 |
| 20260506193055 | 7 | 349 | 3.2 | 8.0 | 0.03 | 2.62 | 1.47 | 91 | 1009.5 |
| 20260506192557 | 7 | 295 | 3.2 | 8.0 | 0.03 | 2.62 | 1.47 | 91 | 1009.5 |
| 20260506192057 | 7 | 347 | 1.6 | 8.0 | 0.03 | 2.62 | 1.47 | 92 | 1009.5 |
| 20260506191556 | 7 | 333 | 3.2 | 6.4 | 0.03 | 2.62 | 1.47 | 92 | 1009.4 |
| 20260506191057 | 7 | 7 | 0.0 | 4.8 | 0.03 | 2.62 | 1.47 | 92 | 1009.3 |
| 20260506190555 | 7 | 326 | 1.6 | 6.4 | 0.03 | 2.62 | 1.47 | 92 | 1009.2 |
| 20260506190055 | 7 | 283 | 3.2 | 6.4 | 0.03 | 2.62 | 1.47 | 92 | 1009.1 |
| 20260506185557 | 7 | 329 | 3.2 | 6.4 | 0.03 | 2.62 | 1.47 | 91 | 1009.1 |
| 20260506185100 | 7 | 335 | 0.0 | 11.3 | 0.00 | 2.59 | 1.47 | 92 | 1009.0 |
| 20260506184604 | 7 | 331 | 1.6 | 11.3 | 0.00 | 2.59 | 1.47 | 92 | 1009.1 |
| 20260506184057 | 7 | 335 | 1.6 | 8.0 | 0.00 | 2.59 | 1.47 | 92 | 1009.2 |
| 20260506183601 | 7 | 321 | 1.6 | 4.8 | 0.00 | 2.59 | 1.47 | 92 | 1009.1 |
| 20260506183105 | 7 | 345 | 1.6 | 4.8 | 0.00 | 2.59 | 1.47 | 92 | 1009.2 |
| 20260506182556 | 7 | 344 | 0.0 | 3.2 | 0.00 | 2.59 | 1.47 | 92 | 1009.2 |
| 20260506182056 | 7 | 0 | 0.0 | 3.2 | 0.00 | 2.59 | 1.47 | 93 | 1009.0 |
| 20260506181601 | 7 | 0 | 0.0 | 6.4 | 0.00 | 2.59 | 1.47 | 93 | 1008.9 |
| 20260506181055 | 7 | 352 | 0.0 | 6.4 | 0.00 | 2.59 | 1.47 | 93 | 1008.9 |
| 20260506180557 | 7 | 340 | 0.0 | 6.4 | 0.00 | 2.59 | 1.47 | 93 | 1008.8 |
| 20260506180057 | 7 | 0 | 0.0 | 6.4 | 0.00 | 2.59 | 1.47 | 92 | 1008.5 |
| 20260506175557 | 7 | 330 | 0.0 | 6.4 | 0.00 | 2.62 | 1.47 | 93 | 1008.6 |
| 20260506175056 | 7 | 350 | 1.6 | 6.4 | 0.00 | 2.62 | 1.47 | 93 | 1008.5 |
| 20260506174602 | 7 | 322 | 1.6 | 6.4 | 0.00 | 2.62 | 1.47 | 93 | 1008.3 |
| 20260506174058 | 7 | 318 | 0.0 | 3.2 | 0.00 | 2.62 | 1.47 | 93 | 1008.2 |
| 20260506173558 | 7 | 352 | 0.0 | 4.8 | 0.00 | 2.62 | 1.47 | 93 | 1008.2 |
| 20260506173112 | 7 | 354 | 1.6 | 6.4 | 0.00 | 2.62 | 1.47 | 93 | 1008.3 |
| 20260506172600 | 7 | 0 | 1.6 | 6.4 | 0.00 | 2.62 | 1.47 | 93 | 1008.4 |
| 20260506172056 | 7 | 335 | 1.6 | 6.4 | 0.00 | 2.62 | 1.47 | 93 | 1008.5 |
| 20260506171600 | 7 | 1 | 0.0 | 6.4 | 0.00 | 2.62 | 1.47 | 93 | 1008.4 |
| 20260506171057 | 7 | 350 | 1.6 | 6.4 | 0.00 | 2.62 | 1.47 | 93 | 1008.3 |
| 20260506170600 | 7 | 349 | 1.6 | 6.4 | 0.00 | 2.62 | 1.47 | 93 | 1008.3 |
| 20260506170101 | 7 | 0 | 1.6 | 6.4 | 0.00 | 2.62 | 1.47 | 93 | 1008.2 |
| 20260506165557 | 7 | 326 | 0.0 | 6.4 | 0.00 | 2.62 | 1.47 | 93 | 1008.1 |
| 20260506165057 | 7 | 0 | 3.2 | 6.4 | 0.00 | 2.62 | 1.47 | 93 | 1008.1 |
| 20260506164558 | 7 | 0 | 1.6 | 4.8 | 0.00 | 2.62 | 1.47 | 93 | 1008.0 |
| 20260506164056 | 7 | 341 | 1.6 | 4.8 | 0.00 | 2.62 | 1.47 | 93 | 1008.0 |
| 20260506163556 | 7 | 0 | 0.0 | 4.8 | 0.00 | 2.62 | 1.47 | 93 | 1008.0 |
| 20260506163059 | 7 | 342 | 1.6 | 6.4 | 0.00 | 2.62 | 1.47 | 93 | 1008.1 |
| 20260506162554 | 7 | 345 | 0.0 | 6.4 | 0.00 | 2.62 | 1.47 | 93 | 1008.1 |
| 20260506162101 | 7 | 326 | 1.6 | 3.2 | 0.00 | 2.62 | 1.47 | 93 | 1008.1 |
| 20260506161605 | 7 | 0 | 0.0 | 3.2 | 0.00 | 2.62 | 1.47 | 94 | 1008.2 |
| 20260506161057 | 7 | 339 | 0.0 | 3.2 | 0.00 | 2.62 | 1.47 | 94 | 1008.2 |
| 20260506160557 | 7 | 0 | 0.0 | 4.8 | 0.00 | 2.62 | 1.47 | 94 | 1008.2 |
| 20260506160058 | 7 | 0 | 0.0 | 4.8 | 0.00 | 2.62 | 1.47 | 94 | 1008.3 |
| 20260506155558 | 7 | 352 | 0.0 | 3.2 | 0.00 | 2.62 | 1.47 | 93 | 1008.4 |
| 20260506155147 | 7 | 0 | 0.0 | 1.6 | 0.00 | 2.62 | 1.47 | 93 | 1008.4 |
| 20260506154557 | 7 | 339 | 0.0 | 3.2 | 0.00 | 2.62 | 1.47 | 94 | 1008.4 |
| 20260506154057 | 6 | 0 | 0.0 | 4.8 | 0.00 | 2.62 | 1.47 | 93 | 1008.4 |
| 20260506153557 | 6 | 0 | 0.0 | 4.8 | 0.00 | 2.62 | 1.47 | 93 | 1008.6 |
| 20260506153058 | 7 | 359 | 0.0 | 3.2 | 0.00 | 2.62 | 1.47 | 94 | 1008.6 |
| 20260506152557 | 6 | 0 | 0.0 | 1.6 | 0.00 | 2.62 | 1.47 | 94 | 1008.5 |
| 20260506152054 | 6 | 339 | 0.0 | 1.6 | 0.00 | 2.62 | 1.47 | 93 | 1008.5 |
| 20260506151605 | 6 | 340 | 0.0 | 1.6 | 0.00 | 2.62 | 1.47 | 93 | 1008.5 |
| 20260506151054 | 6 | 0 | 0.0 | 1.6 | 0.00 | 2.62 | 1.47 | 93 | 1008.5 |
| 20260506150554 | 6 | 0 | 0.0 | 0.0 | 0.00 | 2.62 | 1.47 | 93 | 1008.3 |
| 20260506150106 | 7 | 0 | 0.0 | 0.0 | 0.00 | 2.62 | 1.47 | 93 | 1008.3 |
| 20260506145555 | 7 | 0 | 0.0 | 0.0 | 0.00 | 2.62 | 1.47 | 94 | 1008.0 |
| 20260506145054 | 6 | 0 | 0.0 | 0.0 | 0.00 | 2.62 | 1.47 | 93 | 1008.0 |
| 20260506144602 | 7 | 0 | 0.0 | 0.0 | 0.00 | 2.62 | 1.47 | 93 | 1008.1 |
| 20260506144056 | 7 | 0 | 0.0 | 0.0 | 0.00 | 2.62 | 1.47 | 94 | 1008.0 |
| 20260506143557 | 7 | 0 | 0.0 | 0.0 | 0.00 | 2.62 | 1.47 | 94 | 1007.9 |
| 20260506143103 | 6 | 0 | 0.0 | 1.6 | 0.00 | 2.62 | 1.47 | 94 | 1007.8 |
| 20260506142553 | 7 | 0 | 0.0 | 1.6 | 0.03 | 2.62 | 1.47 | 94 | 1007.9 |
| 20260506142056 | 6 | 0 | 0.0 | 1.6 | 0.05 | 2.62 | 1.47 | 94 | 1007.9 |
| 20260506141559 | 7 | 330 | 0.0 | 0.0 | 0.05 | 2.62 | 1.47 | 94 | 1007.9 |
| 20260506141057 | 6 | 0 | 0.0 | 3.2 | 0.08 | 2.62 | 1.47 | 94 | 1007.9 |
| 20260506140555 | 6 | 0 | 0.0 | 3.2 | 0.08 | 2.62 | 1.47 | 94 | 1008.0 |
| 20260506140111 | 6 | 0 | 0.0 | 0.0 | 0.08 | 2.62 | 1.47 | 94 | 1007.9 |
| 20260506135554 | 6 | 0 | 0.0 | 0.0 | 0.10 | 2.62 | 1.47 | 94 | 1008.0 |
| 20260506135056 | 6 | 0 | 0.0 | 0.0 | 0.10 | 2.62 | 1.47 | 94 | 1008.0 |
| 20260506134555 | 6 | 0 | 0.0 | 0.0 | 0.13 | 2.62 | 1.47 | 94 | 1008.1 |
| 20260506134056 | 6 | 0 | 0.0 | 0.0 | 0.15 | 2.62 | 1.47 | 94 | 1008.1 |
| 20260506133557 | 6 | 0 | 0.0 | 0.0 | 0.18 | 2.62 | 1.47 | 94 | 1008.1 |
| 20260506133103 | 6 | 0 | 0.0 | 0.0 | 0.20 | 2.62 | 1.47 | 94 | 1008.2 |
| 20260506132554 | 6 | 0 | 0.0 | 0.0 | 0.18 | 2.59 | 1.45 | 94 | 1008.2 |
| 20260506132056 | 6 | 0 | 0.0 | 0.0 | 0.18 | 2.57 | 1.42 | 94 | 1008.2 |
| 20260506131601 | 6 | 0 | 0.0 | 0.0 | 0.20 | 2.57 | 1.42 | 94 | 1008.3 |
| 20260506131056 | 6 | 0 | 0.0 | 0.0 | 0.18 | 2.54 | 1.40 | 94 | 1008.5 |
| 20260506130557 | 6 | 0 | 0.0 | 0.0 | 0.20 | 2.54 | 1.40 | 94 | 1008.3 |
| 20260506130126 | 6 | 0 | 0.0 | 0.0 | 0.20 | 2.54 | 1.40 | 94 | 1008.2 |
| 20260506125602 | 6 | 0 | 0.0 | 0.0 | 0.18 | 2.51 | 1.37 | 94 | 1008.4 |
| 20260506125057 | 6 | 0 | 0.0 | 0.0 | 0.18 | 2.51 | 1.37 | 94 | 1008.3 |
| 20260506124556 | 6 | 0 | 0.0 | 0.0 | 0.18 | 2.49 | 1.32 | 94 | 1008.5 |
| 20260506124132 | 6 | 0 | 0.0 | 0.0 | 0.15 | 2.46 | 1.32 | 94 | 1008.3 |
| 20260506123558 | 6 | 0 | 0.0 | 0.0 | 0.13 | 2.44 | 1.30 | 93 | 1008.4 |
| 20260506123059 | 6 | 0 | 0.0 | 0.0 | 0.13 | 2.41 | 1.27 | 93 | 1008.3 |
| 20260506122555 | 6 | 0 | 0.0 | 0.0 | 0.13 | 2.41 | 1.27 | 93 | 1008.5 |
| 20260506122056 | 6 | 0 | 0.0 | 0.0 | 0.13 | 2.39 | 1.24 | 93 | 1008.2 |
| 20260506121603 | 6 | 0 | 0.0 | 0.0 | 0.10 | 2.36 | 1.22 | 93 | 1008.0 |
| 20260506121056 | 6 | 0 | 0.0 | 3.2 | 0.13 | 2.36 | 1.22 | 94 | 1008.0 |
| 20260506120556 | 6 | 0 | 0.0 | 3.2 | 0.13 | 2.34 | 1.19 | 94 | 1008.1 |
| 20260506120100 | 6 | 0 | 0.0 | 3.2 | 0.15 | 2.34 | 1.19 | 93 | 1008.0 |
| 20260506115557 | 6 | 0 | 0.0 | 0.0 | 0.18 | 2.34 | 1.19 | 93 | 1007.9 |
| 20260506115055 | 6 | 0 | 0.0 | 0.0 | 0.20 | 2.34 | 1.19 | 93 | 1008.0 |
| 20260506114557 | 6 | 0 | 0.0 | 0.0 | 0.20 | 2.31 | 1.17 | 93 | 1008.1 |
| 20260506114057 | 6 | 0 | 0.0 | 0.0 | 0.28 | 2.31 | 1.17 | 93 | 1008.2 |
| 20260506113555 | 6 | 0 | 0.0 | 0.0 | 0.33 | 2.31 | 1.17 | 93 | 1008.4 |
| 20260506113108 | 6 | 0 | 0.0 | 0.0 | 0.33 | 2.29 | 1.14 | 93 | 1008.6 |
| 20260506112555 | 6 | 0 | 0.0 | 0.0 | 0.33 | 2.29 | 1.14 | 93 | 1008.5 |
| 20260506112056 | 6 | 0 | 0.0 | 0.0 | 0.30 | 2.26 | 1.12 | 93 | 1008.3 |
| 20260506111557 | 6 | 0 | 0.0 | 0.0 | 0.33 | 2.26 | 1.12 | 93 | 1008.3 |
| 20260506111056 | 6 | 0 | 0.0 | 0.0 | 0.30 | 2.24 | 1.09 | 93 | 1008.5 |
| 20260506110557 | 6 | 0 | 0.0 | 1.6 | 0.30 | 2.21 | 1.07 | 93 | 1008.5 |
| 20260506105558 | 6 | 335 | 0.0 | 1.6 | 0.28 | 2.16 | 1.02 | 93 | 1008.9 |
| 20260506105056 | 6 | 0 | 0.0 | 1.6 | 0.28 | 2.13 | 0.99 | 93 | 1008.8 |
| 20260506104616 | 6 | 0 | 0.0 | 1.6 | 0.23 | 2.08 | 0.94 | 93 | 1009.0 |
| 20260506104054 | 6 | 0 | 0.0 | 1.6 | 0.18 | 2.03 | 0.89 | 93 | 1009.0 |
| 20260506103554 | 6 | 0 | 0.0 | 0.0 | 0.13 | 1.98 | 0.84 | 93 | 1009.0 |
| 20260506103055 | 6 | 0 | 0.0 | 0.0 | 0.10 | 1.96 | 0.81 | 93 | 1008.6 |
| 20260506102555 | 6 | 0 | 0.0 | 0.0 | 0.13 | 1.96 | 0.81 | 93 | 1008.4 |
| 20260506102057 | 6 | 0 | 0.0 | 0.0 | 0.13 | 1.96 | 0.81 | 93 | 1008.1 |
| 20260506101603 | 6 | 0 | 0.0 | 0.0 | 0.13 | 1.93 | 0.79 | 93 | 1008.1 |
| 20260506101057 | 6 | 0 | 0.0 | 0.0 | 0.13 | 1.93 | 0.79 | 93 | 1008.1 |
| 20260506100559 | 6 | 0 | 0.0 | 0.0 | 0.13 | 1.91 | 0.76 | 93 | 1008.2 |
| 20260506100054 | 6 | 0 | 0.0 | 1.6 | 0.10 | 1.88 | 0.74 | 93 | 1008.5 |
| 20260506095559 | 6 | 0 | 0.0 | 3.2 | 0.10 | 1.88 | 0.74 | 93 | 1008.1 |
| 20260506095055 | 6 | 0 | 0.0 | 3.2 | 0.10 | 1.85 | 0.71 | 93 | 1008.1 |
| 20260506094600 | 6 | 0 | 0.0 | 3.2 | 0.10 | 1.85 | 0.71 | 93 | 1007.7 |
| 20260506094054 | 6 | 0 | 0.0 | 0.0 | 0.13 | 1.85 | 0.71 | 93 | 1007.7 |
| 20260506093554 | 6 | 0 | 0.0 | 0.0 | 0.13 | 1.85 | 0.71 | 93 | 1007.9 |
| 20260506093106 | 6 | 0 | 0.0 | 0.0 | 0.15 | 1.85 | 0.71 | 93 | 1007.8 |
| 20260506092554 | 6 | 0 | 0.0 | 0.0 | 0.13 | 1.83 | 0.69 | 93 | 1008.3 |
| 20260506092055 | 6 | 0 | 0.0 | 1.6 | 0.15 | 1.83 | 0.69 | 93 | 1008.5 |
| 20260506091559 | 6 | 0 | 0.0 | 1.6 | 0.15 | 1.80 | 0.66 | 93 | 1008.5 |
| 20260506091055 | 6 | 0 | 0.0 | 1.6 | 0.18 | 1.80 | 0.66 | 93 | 1008.7 |
| 20260506090604 | 6 | 0 | 0.0 | 0.0 | 0.15 | 1.78 | 0.64 | 93 | 1009.0 |
| 20260506085557 | 6 | 0 | 0.0 | 0.0 | 0.18 | 1.78 | 0.64 | 93 | 1009.1 |
| 20260506085055 | 6 | 0 | 0.0 | 0.0 | 0.15 | 1.75 | 0.61 | 93 | 1009.2 |
| 20260506084556 | 6 | 0 | 0.0 | 0.0 | 0.18 | 1.75 | 0.61 | 93 | 1009.2 |
| 20260506084055 | 6 | 0 | 0.0 | 0.0 | 0.18 | 1.73 | 0.58 | 93 | 1009.1 |
| 20260506083555 | 6 | 0 | 0.0 | 0.0 | 0.18 | 1.73 | 0.58 | 93 | 1009.0 |
| 20260506083056 | 6 | 0 | 0.0 | 0.0 | 0.20 | 1.70 | 0.56 | 93 | 1009.0 |
| 20260506082558 | 6 | 0 | 0.0 | 0.0 | 0.25 | 1.70 | 0.56 | 93 | 1008.8 |
| 20260506082057 | 6 | 0 | 0.0 | 0.0 | 0.23 | 1.68 | 0.53 | 93 | 1008.9 |
| 20260506081556 | 6 | 0 | 0.0 | 0.0 | 0.20 | 1.65 | 0.51 | 93 | 1008.7 |
| 20260506081054 | 6 | 0 | 0.0 | 0.0 | 0.18 | 1.63 | 0.48 | 92 | 1008.6 |
| 20260506080555 | 6 | 0 | 0.0 | 0.0 | 0.20 | 1.63 | 0.48 | 92 | 1008.9 |
| 20260506073104 | 7 | 0 | 0.0 | 3.2 | 0.10 | 1.47 | 0.36 | 92 | 1009.0 |
| 20260506072556 | 7 | 83 | 0.0 | 1.6 | 0.05 | 1.45 | 0.30 | 92 | 1009.2 |
| 20260506072059 | 7 | 0 | 0.0 | 4.8 | 0.05 | 1.45 | 0.30 | 92 | 1008.9 |
| 20260506071611 | 7 | 0 | 0.0 | 4.8 | 0.08 | 1.45 | 0.30 | 92 | 1008.6 |
| 20260506071057 | 7 | 122 | 0.0 | 4.8 | 0.10 | 1.45 | 0.30 | 93 | 1008.5 |
| 20260506070555 | 7 | 0 | 0.0 | 0.0 | 0.08 | 1.42 | 0.28 | 92 | 1008.4 |
| 20260506062052 | 8 | 0 | 0.0 | 0.0 | 0.13 | 1.37 | 0.23 | 93 | 1008.8 |
| 20260506061555 | 8 | 0 | 0.0 | 0.0 | 0.13 | 1.37 | 0.23 | 93 | 1009.1 |
| 20260506061055 | 8 | 0 | 0.0 | 0.0 | 0.10 | 1.32 | 0.20 | 93 | 1009.0 |
| 20260506060557 | 8 | 0 | 0.0 | 0.0 | 0.08 | 1.32 | 0.18 | 92 | 1008.9 |
| 20260506051053 | 8 | 0 | 0.0 | 0.0 | 0.05 | 1.24 | 0.10 | 92 | 1009.9 |
| 20260506050552 | 8 | 0 | 0.0 | 0.0 | 0.05 | 1.24 | 0.10 | 92 | 1009.6 |
| 20260506045052 | 8 | 0 | 0.0 | 0.0 | 0.10 | 1.24 | 0.10 | 92 | 1009.8 |
| 20260506044601 | 8 | 0 | 0.0 | 0.0 | 0.13 | 1.24 | 0.10 | 92 | 1009.6 |
| 20260506044052 | 8 | 0 | 0.0 | 0.0 | 0.15 | 1.24 | 0.10 | 92 | 1010.2 |
| 20260506043553 | 8 | 0 | 0.0 | 0.0 | 0.18 | 1.24 | 0.10 | 92 | 1010.3 |
| 20260506043054 | 8 | 0 | 0.0 | 0.0 | 0.20 | 1.24 | 0.10 | 92 | 1010.1 |
| 20260506042555 | 8 | 0 | 0.0 | 0.0 | 0.20 | 1.24 | 0.10 | 92 | 1010.3 |
| 20260506042055 | 8 | 0 | 0.0 | 0.0 | 0.20 | 1.22 | 0.08 | 92 | 1010.2 |
| 20260506041604 | 8 | 0 | 0.0 | 0.0 | 0.23 | 1.22 | 0.08 | 92 | 1010.1 |
| 20260506041054 | 8 | 0 | 0.0 | 0.0 | 0.20 | 1.19 | 0.05 | 92 | 1009.9 |
| 20260506040552 | 8 | 0 | 0.0 | 0.0 | 0.23 | 1.19 | 0.05 | 92 | 1009.7 |
| 20260506040054 | 8 | 0 | 0.0 | 0.0 | 0.20 | 1.14 | 0.00 | 92 | 1009.6 |
| 20260506035552 | 8 | 0 | 0.0 | 0.0 | 0.23 | 1.14 | 1.14 | 92 | 1010.3 |
| 20260506035054 | 8 | 0 | 0.0 | 0.0 | 0.23 | 1.14 | 1.14 | 92 | 1010.1 |
| 20260506034556 | 8 | 0 | 0.0 | 0.0 | 0.23 | 1.12 | 1.12 | 91 | 1009.7 |
| 20260506034052 | 8 | 0 | 0.0 | 0.0 | 0.23 | 1.09 | 1.09 | 91 | 1009.7 |
| 20260506033556 | 8 | 0 | 0.0 | 0.0 | 0.23 | 1.07 | 1.07 | 91 | 1009.9 |
| 20260506033100 | 8 | 0 | 0.0 | 0.0 | 0.20 | 1.04 | 1.04 | 91 | 1010.1 |
| 20260506032557 | 8 | 0 | 0.0 | 0.0 | 0.23 | 1.04 | 1.04 | 91 | 1009.9 |
| 20260506032057 | 8 | 0 | 0.0 | 0.0 | 0.20 | 1.02 | 1.02 | 91 | 1009.8 |
| 20260506031558 | 8 | 0 | 0.0 | 0.0 | 0.20 | 0.99 | 0.99 | 91 | 1009.9 |
| 20260506031101 | 8 | 0 | 0.0 | 0.0 | 0.25 | 0.99 | 0.99 | 91 | 1010.1 |
| 20260506030600 | 8 | 0 | 0.0 | 0.0 | 0.25 | 0.97 | 0.97 | 91 | 1010.2 |
| 20260506030057 | 8 | 0 | 0.0 | 0.0 | 0.25 | 0.94 | 0.94 | 91 | 1010.2 |
| 20260506025558 | 8 | 0 | 0.0 | 0.0 | 0.25 | 0.91 | 0.91 | 91 | 1010.3 |
| 20260506025057 | 8 | 0 | 0.0 | 0.0 | 0.30 | 0.91 | 0.91 | 91 | 1010.6 |
| 20260506024556 | 8 | 0 | 0.0 | 0.0 | 0.28 | 0.89 | 0.89 | 91 | 1010.5 |
| 20260506024055 | 8 | 0 | 0.0 | 0.0 | 0.28 | 0.86 | 0.86 | 91 | 1010.8 |
| 20260506023556 | 8 | 0 | 0.0 | 0.0 | 0.28 | 0.84 | 0.84 | 91 | 1010.4 |
| 20260506023100 | 8 | 0 | 0.0 | 0.0 | 0.30 | 0.84 | 0.84 | 91 | 1010.6 |
| 20260506022557 | 8 | 0 | 0.0 | 0.0 | 0.30 | 0.81 | 0.81 | 90 | 1010.4 |
| 20260506022056 | 8 | 0 | 0.0 | 0.0 | 0.33 | 0.81 | 0.81 | 90 | 1010.4 |
| 20260506021558 | 8 | 0 | 0.0 | 0.0 | 0.36 | 0.79 | 0.79 | 90 | 1010.8 |